Simultaneous Nadir Overpasses (SNOs) Predictions

Prediction of SNOs between NOAA-20 and AQUA Satellite Orbit:

Table of predicted SNOs for the next 14.0 days since TLE Epoch: 8/30/2019
Index Date (NOAA-20) Time (NOAA-20) Lat,Lon (NOAA-20) SZA (NOAA-20 ) Date (AQUA) Time (AQUA) Lat,Lon (AQUA) SZA (AQUA ) Distance(km) Time Diff (sec)
1 09/02/2019 05:55:47 75.24, -32.39 90.30 09/02/2019 05:57:00 75.23, -32.42 90.24 0.81 73
2 09/02/2019 06:46:13 -76.16, 137.90 90.81 09/02/2019 06:46:08 -76.17, 137.97 90.82 1.98 5
3 09/04/2019 22:12:33 75.72, 84.88 90.63 09/04/2019 22:13:19 75.72, 84.83 90.61 1.31 46
4 09/04/2019 23:03:01 -76.55,-104.96 90.36 09/04/2019 23:02:29 -76.55,-104.91 90.34 1.36 32
5 09/07/2019 14:29:19 76.16,-157.91 91.04 09/07/2019 14:29:38 76.15,-157.99 91.05 2.33 19
6 09/07/2019 15:19:48 -76.92, 12.26 89.90 09/07/2019 15:18:49 -76.92, 12.27 89.85 0.28 59
7 09/10/2019 05:55:51 -75.25, 147.62 86.96 09/10/2019 05:56:59 -75.25, 147.62 87.02 0.11 68
8 09/10/2019 06:46:14 76.22, -41.93 91.91 09/10/2019 06:46:05 76.22, -41.86 91.90 2.05 9
9 09/12/2019 22:12:36 -75.78, -94.96 86.64 09/12/2019 22:13:17 -75.78, -95.00 86.67 1.52 41




NCC Satellite Simultaneous Nadir Overpasses (SNOs) Prediction Service
